Location: Abraham Lincoln Continuation High School
(33.9711°N, 117.3662°W)
Time: 05:31:15
(UTC+00:00)

Lacrosse 5 - Pass Details

Date: 25 January 2021
Orbit: 715 x 724 km, 57.0° (Epoch: 01 March)

Event Time Altitude Azimuth Distance (km) Brightness Sun altitude
Rises 03:29:20 0° 304° (NW) 3,116 5.9 -28.3°
Reaches altitude 10° 03:32:15 10° 288° (WNW) 2,193 5.2 -28.9°
Maximum altitude 03:35:52 20° 241° (WSW) 1,616 4.3 -29.6°
Drops below altitude 10° 03:39:29 10° 195° (SSW) 2,187 4.5 -30.4°
Enters shadow 03:41:37 - 182° (S) 2,838 5.0 -30.8°
